TimeEST,TemperatureF,Dew PointF,Humidity,Sea Level PressureIn,VisibilityMPH,Wind Direction,Wind SpeedMPH,Gust SpeedMPH,PrecipitationIn,Events,Conditions,WindDirDegrees,DateUTC
12:00 AM,37.4,30.2,75,30.20,-9999.0,ESE,3.5,-,N/A,,Unknown,110,2013-01-11 05:00:00
1:00 AM,36,33,83,30.16,,East,5.8,,,,,100,2013-01-11 06:00:00
1:00 AM,36.0,31.3,83,30.16,-9999.0,East,5.8,-,0.07,,Unknown,100,2013-01-11 06:00:00
2:00 AM,36.9,32.0,83,30.13,-9999.0,ESE,4.6,-,N/A,,Unknown,110,2013-01-11 07:00:00
3:00 AM,37.0,32.0,82,30.10,-9999.0,ESE,5.8,-,0.02,,Unknown,110,2013-01-11 08:00:00
4:00 AM,38.5,31.3,75,30.05,-9999.0,East,4.6,-,N/A,,Unknown,100,2013-01-11 09:00:00
5:00 AM,39.2,31.8,75,30.01,-9999.0,ESE,3.5,-,0.01,,Unknown,120,2013-01-11 10:00:00
6:00 AM,39.6,33.3,78,29.96,-9999.0,ESE,4.6,-,N/A,,Unknown,120,2013-01-11 11:00:00
7:00 AM,39,34,77,29.94,,SE,4.6,,,,,130,2013-01-11 12:00:00
7:00 AM,38.7,34.3,84,29.94,-9999.0,SE,4.6,-,0.01,,Unknown,130,2013-01-11 12:00:00
8:00 AM,38.7,36.9,93,29.94,-9999.0,SSE,3.5,-,0.12,,Unknown,150,2013-01-11 13:00:00
9:00 AM,41.2,40.1,96,29.92,-9999.0,South,8.1,-,0.11,,Unknown,170,2013-01-11 14:00:00
10:00 AM,42.4,41.7,97,29.83,-9999.0,SSE,12.7,18.4,N/A,,Unknown,150,2013-01-11 15:00:00
11:00 AM,44.1,43.5,98,29.84,-9999.0,South,15.0,-,N/A,,Unknown,190,2013-01-11 16:00:00
12:00 PM,44.4,43.9,98,29.83,-9999.0,SW,8.1,-,N/A,,Unknown,220,2013-01-11 17:00:00
1:00 PM,48,47,96,29.80,,SW,9.2,,,,,220,2013-01-11 18:00:00
1:00 PM,48.2,47.3,97,29.80,-9999.0,SW,9.2,-,N/A,,Unknown,220,2013-01-11 18:00:00
2:00 PM,49.3,47.8,95,29.80,-9999.0,SW,12.7,-,N/A,,Unknown,230,2013-01-11 19:00:00
3:00 PM,52.0,49.6,92,29.81,-9999.0,SW,11.5,-,N/A,,Unknown,230,2013-01-11 20:00:00
4:00 PM,53.1,48.9,86,29.83,-9999.0,SW,11.5,-,N/A,,Unknown,230,2013-01-11 21:00:00
5:00 PM,51.3,45.7,81,29.86,-9999.0,WSW,11.5,-,N/A,,Unknown,240,2013-01-11 22:00:00
6:00 PM,48.4,44.1,85,29.87,-9999.0,SW,9.2,-,N/A,,Unknown,230,2013-01-11 23:00:00
7:00 PM,47,44,86,29.89,,SW,8.1,,,,,220,2013-01-12 00:00:00
7:00 PM,46.9,44.1,90,29.89,-9999.0,SW,8.1,-,N/A,,Unknown,220,2013-01-12 00:00:00
8:00 PM,49.5,45.9,87,29.89,-9999.0,SSW,9.2,-,N/A,,Unknown,210,2013-01-12 01:00:00
9:00 PM,48.7,45.7,89,29.89,-9999.0,SSW,8.1,-,N/A,,Unknown,200,2013-01-12 02:00:00
10:00 PM,46.0,44.8,95,29.89,-9999.0,South,10.4,-,N/A,,Unknown,190,2013-01-12 03:00:00